Погода Иваново

Погода Иваново : погода сейчас, прогноз погоды и архив. Всё, что Вы хотите узнать о погоде Иваново!

Хотите узнать прогноз погоды Иваново? Тогда Вам сюда: Погода Иваново

Поиск расширенной информации на нашем сайте:

Другие новости

Новости СМИ2

Главная страница сайта

Новости сайта

03.07.2017

Напоминаем, что на нашем специализированном сайте Метеоцентр.Азия вы можете получить высокодетализированные автоматические прогнозы погоды по пунктам России, СНГ и мира в авиационном формате (включающие направление и скорость ветра, видимость, явления погоды, количество и форму облачности, нижнюю и верхнюю границу облачности).


Погода Иваново - сегодня

Время (UTC), дата Ветер
(°,м/с) 
Видим.   Явления Облачность Т
(°С)
Тd
(°С)
f(%) Тe
(°С)
Pmin
(гПа)
dP
(гПа)
Po
(мм)
O2
(г/м3)
Тmin Tmax R s Состояние
почвы
09 20.01.18 120 (ЮВ) 1800 м  ливневой снег  10/6 240 м кучево-дожд., средняя 
[Cb calv|Ac und]
-11.5 -13.6 84 -15  1018.4  -0.7  751  317           
12 20.01.18 100 (В) 2000 м  ливневой снег  10/8 240 м кучево-дожд., средняя 
[Cb calv|Ac und]
-10.1 -11.8 87 -14  1016.6  -0.7  750  315           
15 20.01.18 110 (В) 4{10}  2200 м  снег{ливн. осадки}  10/0 средняя 
[As op]
-10.7 -12.5 87 -15  1016.2  -0.5  750  316    -9.9     
18 20.01.18 120 (ЮВ) 2500 м  снег{ливн. осадки}  10/5 300 м средняя 
[Sc|As op]
-11.4 -13.1 87 -16  1015.8  -0.4  749  316           
21 20.01.18 120 (ЮВ) 3200 м  снег  10/3 300 м средняя 
[Sc|As op]
-11.5 -13.2 87 -15  1015.3  -0.5  749  316           
00 21.01.18 110 (В) 4200 м  слаб. снег  10/3 600 м средняя 
[Sc|As op]
-11 -12.6 88 -15  1014.7  -0.5  749  315           
03 21.01.18 110 (В) 2200 м  снег  10/4 210 м средняя 
[Frnb|As op]
-9.7 -11.1 89 -14  1014.3  -0.3  748  314  -11.6    12  равномерный
сухой снег
100% 
06 21.01.18 120 (ЮВ) 4000 м  слаб. снег  10/5 270 м средняя 
[Frnb|As op]
-8.1 -9.4 90 -11  1014.3  0.1  749  312           
09 21.01.18 110 (В) 4000 м  слаб. снег  10/5 300 м средняя 
[Sc|As op]
-6.7 -7.9 91 -9  1014.6  0.4  749  310           
12 21.01.18 100 (В) 4000 м  слаб. снег  10/6 400 м средняя 
[Sc|As op]
-6.6 -8.4 87 -9  1013.8  -0.7  748  310           
15 21.01.18 080 (В) 4000 м  слаб. снег  10/6 480 м средняя 
[Sc|As op]
-7.6 -9.4 87 -10  1013  -0.7  748  311    -6.3  0.7     
18 21.01.18 080 (В) 1000 м  сильн. снег  10/10 210 м 
[Frnb|Ns]
-8.1 -9.4 90 -10  1011  -2  746  311           
21 21.01.18 050 (СВ) 0500 м  сильн. снег  10/10 100 м 
[Frnb|Ns]
-8.5 -9.6 92 -10  1008.9  -2.1  745  311           
00 22.01.18 350 (С) 1000 м  сильн. снег  10/10 150 м 
[Frnb|Ns]
-9 -10.2 91 -9  1007.3  -1.6  743  311           
03 22.01.18 270 (З) 2000 м  снег  10/10 180 м 
[Frnb|Ns]
-9.3 -10.6 90 -11  1008.3  0.9  744  311  -9.3    13  29  равномерный
сухой снег
100% 
06 22.01.18 250 (З) 5000 м  слаб. снег  10/6 300 м средняя 
[Sc|As op]
-9.1 -10.4 90 -12  1010.6  2.3  746  312  -9.4         
09 22.01.18 240 (ЮЗ) 4000 м  в посл. час снег  8/5 300 м верхняя 
[Sc|Ci fib]
-7.5 -9.6 85 -11  1013.4  2.8  748  311           
12 22.01.18 220 (ЮЗ) 10 км  {снег}  8/3 600 м верхняя 
[Sc|Ci fib]
-9.2 -13.3 72 -12  1016.7  3.1  750  314           
15 22.01.18 150 (ЮВ) 4000 м    10/6 570 м средняя 
[Sc|Ac trans]
-13 -14.5 88 -13  1019.7  2.7  752  320    -7.3  0.5     
18 22.01.18 200 (Ю) 4000 м  дымка{снег}  8/5 700 м верхняя 
[Sc|Ci fib]
-14.6 -15.9 90 -15  1021.4  1.6  753  322           
21 22.01.18 140 (ЮВ) 4000 м  дымка  6/0 верхняя 
[Ci fib]
-18.3 -20.3 84 -21  1023.3  1.6  755  327           
00 23.01.18 тихо ()   4000 м  дымка  6/0 верхняя 
[Ci fib]
-21.8 -24.3 80 -22  1024.7  1.1  755  333           
03 23.01.18 130 (ЮВ) 4000 м  дымка  6/0 верхняя 
[Ci fib]
-23.3 -26 78 -24  1025.6  0.9  756  335  -23.6    0.2  25  равномерный
сухой снег
100% 
06 23.01.18 130 (ЮВ) 4000 м  дымка  10/0 средняя, верхняя 
[Ac trans|Ci fib]
-22.2 -24.8 79 -23  1026.5  0.9  757  334  -23.7         
09 23.01.18 140 (ЮВ) 4000 м  дымка  9/0 средняя, верхняя 
[Ac trans|Cs]
-14.8 -16.6 86 -15  1026.3  0.4  757  324           
Время (UTC), дата Ветер
(°,м/с) 
Видим.   Явления Облачность Т
(°С)
Тd
(°С)
f(%) Тe
(°С)
Pmin
(гПа)
dP
(гПа)
Po
(мм)
O2
(г/м3)
Тmin Tmax R s Состояние
почвы

Для получения пояснительной информации подведите курсор к названию столбца.

ПОГОДА Иваново - архив

Всё, что Вы хотите узнать о погоде Иваново - удобно и подробно!

Выберите нужную дату (начиная с 1 января 2015* года) и нажмите кнопку "Найти".
Будут отображены архивные сводки погоды по пункту Иваново, начиная с указанной даты.


Отображать данные в формате CSV (для использования в таблицах Excel)


Внимание! Наш архив погоды предназначен исключительно для личного некоммерческого использования в познавательных целях. Если Вам необходимы официальные справки о состоянии погоды (для производственных, юридических, коммерческих и т.п. целей), обращайтесь в органы Росгидромета.

*Примечание: данная дата относится к архиву по метеостанциям СССР (Россия, СНГ, Балтия).
Архив по метеостанциям Зарубежной Европы и Азии (кроме Китая) хранится 10 дней, по другим регионам земного шара (Китай, Африка, Америка, Австралия, Океания) - 1 день.

Иваново - район местоположения метеостанции


Название, широта, долгота, высота метеостанции:
Иваново (Южный) 56.9°ш. 40.1°д. 126 м над ур. моря [Российская Федерация]

Дополнительная информация

В oтличие oт бoльшинства пoгoдных сайтoв мы публикуем пoдрoбную метеoинфoрмацию в детальнoм прoфессиoнальнoм фoрмате.

Характеристики температуры и влажнoсти вoздуха измеряются на высoте 2 м в тени вдали oт зданий и деревьев.
Скoрoсть ветра измеряется на высoте 10 м (на урoвне рoста челoвека скoрoсть ветра ниже в 1.5-2 раза). Если метеoстанция нахoдится в гoрoде или в лесу, тo скoрoсть ветра занижена на 2-4 м/с пo сравнению с oткрытым местoм. Скoрoсть ветра над акватoриями крупных рек и oзёр, а также на вершинах хoлмoв на 2-5 м/с выше, чем в oбычных услoвиях.
Атмoсфернoе давление в разных тoчках местнoсти мoжет значительнo oтличаться oт давления на метеoстанции, в зависимoсти oт услoвий рельефа (при пoдъёме на 10 м давление пoнижается примернo на 1 мм рт.ст.).